Multibeam Report for MV1005


Ship Name: Melville
Chief Scientist: None
Source Organization: Rolling Deck to Repository
Start Date: 2010-03-25
End Date: 2010-04-03


View ISO Metadata

Visit the full NCEI Bathymetry Viewer


Multibeam Bathymetry

Cruise Details

Project: Transit
Instrument: Simrad EM122

Data Quality

Number of Files: 406
Number of Records: 104343
BATHYMETRY DATA Quantity Percentage
Number of Beams 45076176 100%
Number of Good Beams 40432294 89.7%
Number of Zero Beams 0 0%
Number of Flagged Beams 4643882 10.3%
AMPLITUDE DATA Quantity Percentage
Number of Beams 45076176 100%
Number of Good Beams 40432294 89.7%
Number of Zero Beams 0 0%
Number of Flagged Beams 4643882 10.3%
SIDESCAN DATA Quantity Percentage
Number of Pixels 106847232 100%
Number of Good Pixels 91291760 85.44%
Number of Zero Pixels 0 0%
Number of Flagged Pixels 15555472 14.56%

Navigation Totals

Total Time: 199.0679 hours
Total Track Length: 4666.2198 km
Average Speed: 23.44 km/hr (12.6566 knots)

Cruise Bounds

Northern Extent: 7.695452
Southern Extent: -32.97775
Western Extent: -84.32173
Eastern Extent: -71.605286

Limits

Minimum Sonar Depth 3.1808 Maximum Sonar Depth 8.2776
Minimum Altitude 0 Maximum Altitude 6987.8003
Minimum Depth 4.4346 Maximum Depth 7270.5225
Minimum Amplitude 0 Maximum Amplitude 21
Minimum Sidescan 0 Maximum Sidescan 21.73

File Information

Full Resolution Bathymetry as collected (raw): 404

Files File Size Description
0000_20100325_152048_Melville.all.mb58.gz 61.11MB Kongsberg multibeam vendor format
0001_20100325_155039_Melville.all.mb58.gz 48.57MB Kongsberg multibeam vendor format
0002_20100325_162041_Melville.all.mb58.gz 20.93MB Kongsberg multibeam vendor format
0003_20100325_165040_Melville.all.mb58.gz 19.42MB Kongsberg multibeam vendor format
0004_20100325_172041_Melville.all.mb58.gz 17.23MB Kongsberg multibeam vendor format
0005_20100325_175049_Melville.all.mb58.gz 16.07MB Kongsberg multibeam vendor format
0006_20100325_182054_Melville.all.mb58.gz 16.09MB Kongsberg multibeam vendor format
0007_20100325_185053_Melville.all.mb58.gz 19.01MB Kongsberg multibeam vendor format
0008_20100325_192056_Melville.all.mb58.gz 15.07MB Kongsberg multibeam vendor format
0009_20100325_195050_Melville.all.mb58.gz 12.38MB Kongsberg multibeam vendor format
0010_20100325_202050_Melville.all.mb58.gz 12.47MB Kongsberg multibeam vendor format
0011_20100325_205059_Melville.all.mb58.gz 11.23MB Kongsberg multibeam vendor format
0012_20100325_212058_Melville.all.mb58.gz 10.90MB Kongsberg multibeam vendor format
0013_20100325_215100_Melville.all.mb58.gz 11.00MB Kongsberg multibeam vendor format
0014_20100325_222056_Melville.all.mb58.gz 11.72MB Kongsberg multibeam vendor format
0015_20100325_225055_Melville.all.mb58.gz 11.24MB Kongsberg multibeam vendor format
0016_20100325_232053_Melville.all.mb58.gz 10.54MB Kongsberg multibeam vendor format
0017_20100325_235053_Melville.all.mb58.gz 10.53MB Kongsberg multibeam vendor format
0018_20100326_002056_Melville.all.mb58.gz 9.46MB Kongsberg multibeam vendor format
0019_20100326_005102_Melville.all.mb58.gz 8.85MB Kongsberg multibeam vendor format
0020_20100326_012056_Melville.all.mb58.gz 8.30MB Kongsberg multibeam vendor format
0021_20100326_015058_Melville.all.mb58.gz 7.13MB Kongsberg multibeam vendor format
0022_20100326_022100_Melville.all.mb58.gz 6.95MB Kongsberg multibeam vendor format
0023_20100326_025056_Melville.all.mb58.gz 7.13MB Kongsberg multibeam vendor format
0024_20100326_032105_Melville.all.mb58.gz 7.46MB Kongsberg multibeam vendor format
0025_20100326_035103_Melville.all.mb58.gz 7.92MB Kongsberg multibeam vendor format
0026_20100326_042101_Melville.all.mb58.gz 7.84MB Kongsberg multibeam vendor format
0027_20100326_045103_Melville.all.mb58.gz 7.65MB Kongsberg multibeam vendor format
0028_20100326_052059_Melville.all.mb58.gz 8.13MB Kongsberg multibeam vendor format
0029_20100326_055056_Melville.all.mb58.gz 8.29MB Kongsberg multibeam vendor format
0030_20100326_062106_Melville.all.mb58.gz 8.86MB Kongsberg multibeam vendor format
0031_20100326_065104_Melville.all.mb58.gz 8.40MB Kongsberg multibeam vendor format
0032_20100326_072104_Melville.all.mb58.gz 8.40MB Kongsberg multibeam vendor format
0033_20100326_075056_Melville.all.mb58.gz 9.26MB Kongsberg multibeam vendor format
0034_20100326_082056_Melville.all.mb58.gz 9.07MB Kongsberg multibeam vendor format
0035_20100326_085102_Melville.all.mb58.gz 6.46MB Kongsberg multibeam vendor format
0036_20100326_092055_Melville.all.mb58.gz 5.32MB Kongsberg multibeam vendor format
0037_20100326_095058_Melville.all.mb58.gz 3.65MB Kongsberg multibeam vendor format
0037_20100326_101250_Melville.all.mb58.gz 5.39MB Kongsberg multibeam vendor format
0038_20100326_104252_Melville.all.mb58.gz 5.30MB Kongsberg multibeam vendor format
0039_20100326_111245_Melville.all.mb58.gz 5.15MB Kongsberg multibeam vendor format
0040_20100326_114258_Melville.all.mb58.gz 5.37MB Kongsberg multibeam vendor format
0041_20100326_121243_Melville.all.mb58.gz 5.31MB Kongsberg multibeam vendor format
0042_20100326_124250_Melville.all.mb58.gz 5.41MB Kongsberg multibeam vendor format
0043_20100326_131246_Melville.all.mb58.gz 5.54MB Kongsberg multibeam vendor format
0044_20100326_134259_Melville.all.mb58.gz 5.40MB Kongsberg multibeam vendor format
0045_20100326_141245_Melville.all.mb58.gz 5.42MB Kongsberg multibeam vendor format
0046_20100326_144244_Melville.all.mb58.gz 5.34MB Kongsberg multibeam vendor format
0047_20100326_151244_Melville.all.mb58.gz 5.47MB Kongsberg multibeam vendor format
0048_20100326_154254_Melville.all.mb58.gz 5.16MB Kongsberg multibeam vendor format
0049_20100326_161251_Melville.all.mb58.gz 5.29MB Kongsberg multibeam vendor format
0050_20100326_164243_Melville.all.mb58.gz 5.13MB Kongsberg multibeam vendor format
0051_20100326_171254_Melville.all.mb58.gz 5.20MB Kongsberg multibeam vendor format
0052_20100326_174253_Melville.all.mb58.gz 5.25MB Kongsberg multibeam vendor format
0053_20100326_181256_Melville.all.mb58.gz 5.55MB Kongsberg multibeam vendor format
0054_20100326_184259_Melville.all.mb58.gz 5.39MB Kongsberg multibeam vendor format
0055_20100326_191255_Melville.all.mb58.gz 5.35MB Kongsberg multibeam vendor format
0056_20100326_194245_Melville.all.mb58.gz 5.45MB Kongsberg multibeam vendor format
0057_20100326_201253_Melville.all.mb58.gz 5.30MB Kongsberg multibeam vendor format
0058_20100326_204245_Melville.all.mb58.gz 5.04MB Kongsberg multibeam vendor format
0059_20100326_211247_Melville.all.mb58.gz 5.46MB Kongsberg multibeam vendor format
0060_20100326_214252_Melville.all.mb58.gz 5.37MB Kongsberg multibeam vendor format
0061_20100326_221244_Melville.all.mb58.gz 5.52MB Kongsberg multibeam vendor format
0062_20100326_224253_Melville.all.mb58.gz 5.14MB Kongsberg multibeam vendor format
0063_20100326_231257_Melville.all.mb58.gz 5.40MB Kongsberg multibeam vendor format
0064_20100326_234248_Melville.all.mb58.gz 5.31MB Kongsberg multibeam vendor format
0065_20100327_001254_Melville.all.mb58.gz 6.94MB Kongsberg multibeam vendor format
0065_20100327_005645_Melville.all.mb58.gz 5.21MB Kongsberg multibeam vendor format
0066_20100327_012648_Melville.all.mb58.gz 5.02MB Kongsberg multibeam vendor format
0067_20100327_015659_Melville.all.mb58.gz 5.39MB Kongsberg multibeam vendor format
0068_20100327_022658_Melville.all.mb58.gz 4.96MB Kongsberg multibeam vendor format
0069_20100327_025653_Melville.all.mb58.gz 4.75MB Kongsberg multibeam vendor format
0070_20100327_032651_Melville.all.mb58.gz 4.63MB Kongsberg multibeam vendor format
0071_20100327_035657_Melville.all.mb58.gz 4.76MB Kongsberg multibeam vendor format
0072_20100327_042644_Melville.all.mb58.gz 5.24MB Kongsberg multibeam vendor format
0073_20100327_045658_Melville.all.mb58.gz 5.18MB Kongsberg multibeam vendor format
0074_20100327_052648_Melville.all.mb58.gz 5.55MB Kongsberg multibeam vendor format
0075_20100327_055644_Melville.all.mb58.gz 6.03MB Kongsberg multibeam vendor format
0076_20100327_062644_Melville.all.mb58.gz 6.07MB Kongsberg multibeam vendor format
0077_20100327_065646_Melville.all.mb58.gz 5.61MB Kongsberg multibeam vendor format
0078_20100327_072651_Melville.all.mb58.gz 6.01MB Kongsberg multibeam vendor format
0079_20100327_075656_Melville.all.mb58.gz 5.56MB Kongsberg multibeam vendor format
0080_20100327_082653_Melville.all.mb58.gz 5.17MB Kongsberg multibeam vendor format
0081_20100327_085655_Melville.all.mb58.gz 5.72MB Kongsberg multibeam vendor format
0082_20100327_092658_Melville.all.mb58.gz 1.22MB Kongsberg multibeam vendor format
0082_20100327_093430_Melville.all.mb58.gz 5.39MB Kongsberg multibeam vendor format
0083_20100327_100438_Melville.all.mb58.gz 5.34MB Kongsberg multibeam vendor format
0084_20100327_103423_Melville.all.mb58.gz 5.30MB Kongsberg multibeam vendor format
0085_20100327_110436_Melville.all.mb58.gz 4.84MB Kongsberg multibeam vendor format
0086_20100327_113437_Melville.all.mb58.gz 5.27MB Kongsberg multibeam vendor format
0087_20100327_120433_Melville.all.mb58.gz 5.23MB Kongsberg multibeam vendor format
0088_20100327_123430_Melville.all.mb58.gz 5.25MB Kongsberg multibeam vendor format
0089_20100327_130435_Melville.all.mb58.gz 4.70MB Kongsberg multibeam vendor format
0090_20100327_133430_Melville.all.mb58.gz 4.51MB Kongsberg multibeam vendor format
0091_20100327_140432_Melville.all.mb58.gz 5.22MB Kongsberg multibeam vendor format
0092_20100327_143428_Melville.all.mb58.gz 4.78MB Kongsberg multibeam vendor format
0093_20100327_150435_Melville.all.mb58.gz 5.10MB Kongsberg multibeam vendor format
0094_20100327_153439_Melville.all.mb58.gz 5.14MB Kongsberg multibeam vendor format
0095_20100327_160442_Melville.all.mb58.gz 5.14MB Kongsberg multibeam vendor format
0096_20100327_163432_Melville.all.mb58.gz 4.94MB Kongsberg multibeam vendor format
0097_20100327_170427_Melville.all.mb58.gz 5.26MB Kongsberg multibeam vendor format
0098_20100327_173438_Melville.all.mb58.gz 5.26MB Kongsberg multibeam vendor format
0099_20100327_180422_Melville.all.mb58.gz 5.03MB Kongsberg multibeam vendor format
0100_20100327_183436_Melville.all.mb58.gz 4.93MB Kongsberg multibeam vendor format
0101_20100327_190437_Melville.all.mb58.gz 4.84MB Kongsberg multibeam vendor format
0102_20100327_193433_Melville.all.mb58.gz 4.73MB Kongsberg multibeam vendor format
0103_20100327_200436_Melville.all.mb58.gz 4.96MB Kongsberg multibeam vendor format
0104_20100327_203424_Melville.all.mb58.gz 4.92MB Kongsberg multibeam vendor format
0104_20100327_211150_Melville.all.mb58.gz 5.09MB Kongsberg multibeam vendor format
0105_20100327_214154_Melville.all.mb58.gz 5.17MB Kongsberg multibeam vendor format
0106_20100327_221154_Melville.all.mb58.gz 5.07MB Kongsberg multibeam vendor format
0107_20100327_224201_Melville.all.mb58.gz 4.80MB Kongsberg multibeam vendor format
0108_20100327_231156_Melville.all.mb58.gz 4.93MB Kongsberg multibeam vendor format
0109_20100327_234200_Melville.all.mb58.gz 4.87MB Kongsberg multibeam vendor format
0110_20100328_001153_Melville.all.mb58.gz 4.79MB Kongsberg multibeam vendor format
0111_20100328_004156_Melville.all.mb58.gz 4.57MB Kongsberg multibeam vendor format
0112_20100328_011203_Melville.all.mb58.gz 5.07MB Kongsberg multibeam vendor format
0113_20100328_014205_Melville.all.mb58.gz 4.74MB Kongsberg multibeam vendor format
0114_20100328_021200_Melville.all.mb58.gz 4.92MB Kongsberg multibeam vendor format
0115_20100328_024148_Melville.all.mb58.gz 4.84MB Kongsberg multibeam vendor format
0116_20100328_031148_Melville.all.mb58.gz 4.91MB Kongsberg multibeam vendor format
0117_20100328_034155_Melville.all.mb58.gz 4.35MB Kongsberg multibeam vendor format
0118_20100328_041153_Melville.all.mb58.gz 4.51MB Kongsberg multibeam vendor format
0119_20100328_044155_Melville.all.mb58.gz 4.87MB Kongsberg multibeam vendor format
0120_20100328_051201_Melville.all.mb58.gz 4.72MB Kongsberg multibeam vendor format
0121_20100328_054208_Melville.all.mb58.gz 4.62MB Kongsberg multibeam vendor format
0122_20100328_061152_Melville.all.mb58.gz 4.93MB Kongsberg multibeam vendor format
0123_20100328_064204_Melville.all.mb58.gz 4.80MB Kongsberg multibeam vendor format
0124_20100328_071204_Melville.all.mb58.gz 4.52MB Kongsberg multibeam vendor format
0125_20100328_074209_Melville.all.mb58.gz 4.58MB Kongsberg multibeam vendor format
0126_20100328_081152_Melville.all.mb58.gz 4.61MB Kongsberg multibeam vendor format
0127_20100328_084202_Melville.all.mb58.gz 4.83MB Kongsberg multibeam vendor format
0128_20100328_091157_Melville.all.mb58.gz 4.62MB Kongsberg multibeam vendor format
0129_20100328_094154_Melville.all.mb58.gz 4.79MB Kongsberg multibeam vendor format
0130_20100328_101202_Melville.all.mb58.gz 5.13MB Kongsberg multibeam vendor format
0131_20100328_104155_Melville.all.mb58.gz 5.19MB Kongsberg multibeam vendor format
0132_20100328_111151_Melville.all.mb58.gz 4.92MB Kongsberg multibeam vendor format
0133_20100328_114155_Melville.all.mb58.gz 4.97MB Kongsberg multibeam vendor format
0134_20100328_121151_Melville.all.mb58.gz 5.15MB Kongsberg multibeam vendor format
0135_20100328_124155_Melville.all.mb58.gz 5.27MB Kongsberg multibeam vendor format
0136_20100328_131147_Melville.all.mb58.gz 5.18MB Kongsberg multibeam vendor format
0137_20100328_134157_Melville.all.mb58.gz 5.06MB Kongsberg multibeam vendor format
0138_20100328_141156_Melville.all.mb58.gz 5.12MB Kongsberg multibeam vendor format
0139_20100328_144154_Melville.all.mb58.gz 5.36MB Kongsberg multibeam vendor format
0140_20100328_151156_Melville.all.mb58.gz 5.17MB Kongsberg multibeam vendor format
0141_20100328_154150_Melville.all.mb58.gz 5.21MB Kongsberg multibeam vendor format
0142_20100328_161155_Melville.all.mb58.gz 5.20MB Kongsberg multibeam vendor format
0143_20100328_164157_Melville.all.mb58.gz 2.58MB Kongsberg multibeam vendor format
0143_20100328_170007_Melville.all.mb58.gz 5.15MB Kongsberg multibeam vendor format
0144_20100328_173015_Melville.all.mb58.gz 5.29MB Kongsberg multibeam vendor format
0145_20100328_180023_Melville.all.mb58.gz 5.35MB Kongsberg multibeam vendor format
0146_20100328_183021_Melville.all.mb58.gz 5.20MB Kongsberg multibeam vendor format
0147_20100328_190014_Melville.all.mb58.gz 5.38MB Kongsberg multibeam vendor format
0148_20100328_193012_Melville.all.mb58.gz 5.51MB Kongsberg multibeam vendor format
0149_20100328_200007_Melville.all.mb58.gz 5.63MB Kongsberg multibeam vendor format
0150_20100328_203019_Melville.all.mb58.gz 5.71MB Kongsberg multibeam vendor format
0151_20100328_210015_Melville.all.mb58.gz 5.72MB Kongsberg multibeam vendor format
0152_20100328_213015_Melville.all.mb58.gz 5.75MB Kongsberg multibeam vendor format
0153_20100328_220019_Melville.all.mb58.gz 5.82MB Kongsberg multibeam vendor format
0154_20100328_223008_Melville.all.mb58.gz 6.36MB Kongsberg multibeam vendor format
0155_20100328_230013_Melville.all.mb58.gz 6.46MB Kongsberg multibeam vendor format
0156_20100328_233016_Melville.all.mb58.gz 6.36MB Kongsberg multibeam vendor format
0157_20100329_000014_Melville.all.mb58.gz 6.64MB Kongsberg multibeam vendor format
0158_20100329_003020_Melville.all.mb58.gz 6.80MB Kongsberg multibeam vendor format
0159_20100329_010015_Melville.all.mb58.gz 7.08MB Kongsberg multibeam vendor format
0160_20100329_013016_Melville.all.mb58.gz 6.71MB Kongsberg multibeam vendor format
0161_20100329_020010_Melville.all.mb58.gz 6.75MB Kongsberg multibeam vendor format
0162_20100329_023009_Melville.all.mb58.gz 6.64MB Kongsberg multibeam vendor format
0163_20100329_030016_Melville.all.mb58.gz 6.68MB Kongsberg multibeam vendor format
0164_20100329_033019_Melville.all.mb58.gz 6.50MB Kongsberg multibeam vendor format
0165_20100329_040017_Melville.all.mb58.gz 6.52MB Kongsberg multibeam vendor format
0166_20100329_043008_Melville.all.mb58.gz 6.17MB Kongsberg multibeam vendor format
0167_20100329_050017_Melville.all.mb58.gz 5.98MB Kongsberg multibeam vendor format
0168_20100329_053021_Melville.all.mb58.gz 5.77MB Kongsberg multibeam vendor format
0169_20100329_060015_Melville.all.mb58.gz 5.76MB Kongsberg multibeam vendor format
0170_20100329_063019_Melville.all.mb58.gz 5.65MB Kongsberg multibeam vendor format
0171_20100329_070018_Melville.all.mb58.gz 5.54MB Kongsberg multibeam vendor format
0172_20100329_073018_Melville.all.mb58.gz 5.44MB Kongsberg multibeam vendor format
0173_20100329_080011_Melville.all.mb58.gz 5.46MB Kongsberg multibeam vendor format
0174_20100329_083007_Melville.all.mb58.gz 5.52MB Kongsberg multibeam vendor format
0175_20100329_090022_Melville.all.mb58.gz 5.56MB Kongsberg multibeam vendor format
0176_20100329_093016_Melville.all.mb58.gz 4.46MB Kongsberg multibeam vendor format
0176_20100329_100010_Melville.all.mb58.gz 5.42MB Kongsberg multibeam vendor format
0177_20100329_103016_Melville.all.mb58.gz 5.40MB Kongsberg multibeam vendor format
0178_20100329_110017_Melville.all.mb58.gz 5.37MB Kongsberg multibeam vendor format
0179_20100329_113017_Melville.all.mb58.gz 5.42MB Kongsberg multibeam vendor format
0180_20100329_120010_Melville.all.mb58.gz 5.45MB Kongsberg multibeam vendor format
0181_20100329_123014_Melville.all.mb58.gz 5.48MB Kongsberg multibeam vendor format
0182_20100329_130023_Melville.all.mb58.gz 5.15MB Kongsberg multibeam vendor format
0183_20100329_133024_Melville.all.mb58.gz 5.33MB Kongsberg multibeam vendor format
0184_20100329_140009_Melville.all.mb58.gz 5.36MB Kongsberg multibeam vendor format
0185_20100329_143017_Melville.all.mb58.gz 5.30MB Kongsberg multibeam vendor format
0186_20100329_150010_Melville.all.mb58.gz 5.32MB Kongsberg multibeam vendor format
0187_20100329_153010_Melville.all.mb58.gz 5.29MB Kongsberg multibeam vendor format
0188_20100329_160012_Melville.all.mb58.gz 5.24MB Kongsberg multibeam vendor format
0189_20100329_163015_Melville.all.mb58.gz 5.21MB Kongsberg multibeam vendor format
0190_20100329_170017_Melville.all.mb58.gz 5.27MB Kongsberg multibeam vendor format
0191_20100329_173020_Melville.all.mb58.gz 4.94MB Kongsberg multibeam vendor format
0192_20100329_180014_Melville.all.mb58.gz 5.14MB Kongsberg multibeam vendor format
0193_20100329_183014_Melville.all.mb58.gz 5.14MB Kongsberg multibeam vendor format
0194_20100329_190014_Melville.all.mb58.gz 5.27MB Kongsberg multibeam vendor format
0195_20100329_193018_Melville.all.mb58.gz 5.19MB Kongsberg multibeam vendor format
0196_20100329_200008_Melville.all.mb58.gz 4.89MB Kongsberg multibeam vendor format
0197_20100329_203024_Melville.all.mb58.gz 4.93MB Kongsberg multibeam vendor format
0198_20100329_210018_Melville.all.mb58.gz 5.18MB Kongsberg multibeam vendor format
0199_20100329_213008_Melville.all.mb58.gz 5.22MB Kongsberg multibeam vendor format
0200_20100329_220010_Melville.all.mb58.gz 5.32MB Kongsberg multibeam vendor format
0201_20100329_223022_Melville.all.mb58.gz 5.01MB Kongsberg multibeam vendor format
0202_20100329_230021_Melville.all.mb58.gz 4.98MB Kongsberg multibeam vendor format
0203_20100329_233022_Melville.all.mb58.gz 5.50MB Kongsberg multibeam vendor format
0204_20100330_000013_Melville.all.mb58.gz 5.76MB Kongsberg multibeam vendor format
0205_20100330_003016_Melville.all.mb58.gz 5.78MB Kongsberg multibeam vendor format
0206_20100330_010013_Melville.all.mb58.gz 5.76MB Kongsberg multibeam vendor format
0207_20100330_013015_Melville.all.mb58.gz 5.55MB Kongsberg multibeam vendor format
0208_20100330_020010_Melville.all.mb58.gz 5.69MB Kongsberg multibeam vendor format
0209_20100330_023011_Melville.all.mb58.gz 5.64MB Kongsberg multibeam vendor format
0210_20100330_030012_Melville.all.mb58.gz 5.69MB Kongsberg multibeam vendor format
0211_20100330_033016_Melville.all.mb58.gz 5.64MB Kongsberg multibeam vendor format
0212_20100330_040010_Melville.all.mb58.gz 5.64MB Kongsberg multibeam vendor format
0213_20100330_043019_Melville.all.mb58.gz 5.47MB Kongsberg multibeam vendor format
0214_20100330_050017_Melville.all.mb58.gz 5.52MB Kongsberg multibeam vendor format
0215_20100330_053021_Melville.all.mb58.gz 5.51MB Kongsberg multibeam vendor format
0216_20100330_060021_Melville.all.mb58.gz 5.27MB Kongsberg multibeam vendor format
0217_20100330_063018_Melville.all.mb58.gz 5.35MB Kongsberg multibeam vendor format
0218_20100330_070016_Melville.all.mb58.gz 5.24MB Kongsberg multibeam vendor format
0219_20100330_073011_Melville.all.mb58.gz 4.74MB Kongsberg multibeam vendor format
0220_20100330_080027_Melville.all.mb58.gz 4.57MB Kongsberg multibeam vendor format
0221_20100330_083011_Melville.all.mb58.gz 5.23MB Kongsberg multibeam vendor format
0222_20100330_090020_Melville.all.mb58.gz 4.52MB Kongsberg multibeam vendor format
0223_20100330_093025_Melville.all.mb58.gz 4.73MB Kongsberg multibeam vendor format
0224_20100330_100024_Melville.all.mb58.gz 4.76MB Kongsberg multibeam vendor format
0225_20100330_103016_Melville.all.mb58.gz 4.80MB Kongsberg multibeam vendor format
0226_20100330_110013_Melville.all.mb58.gz 4.72MB Kongsberg multibeam vendor format
0227_20100330_113022_Melville.all.mb58.gz 4.44MB Kongsberg multibeam vendor format
0228_20100330_120013_Melville.all.mb58.gz 4.47MB Kongsberg multibeam vendor format
0229_20100330_123026_Melville.all.mb58.gz 3.90MB Kongsberg multibeam vendor format
0230_20100330_130032_Melville.all.mb58.gz 4.12MB Kongsberg multibeam vendor format
0231_20100330_133009_Melville.all.mb58.gz 4.25MB Kongsberg multibeam vendor format
0232_20100330_140025_Melville.all.mb58.gz 4.29MB Kongsberg multibeam vendor format
0233_20100330_143015_Melville.all.mb58.gz 4.53MB Kongsberg multibeam vendor format
0234_20100330_150021_Melville.all.mb58.gz 4.57MB Kongsberg multibeam vendor format
0235_20100330_153012_Melville.all.mb58.gz 4.81MB Kongsberg multibeam vendor format
0236_20100330_160025_Melville.all.mb58.gz 4.79MB Kongsberg multibeam vendor format
0237_20100330_163018_Melville.all.mb58.gz 4.80MB Kongsberg multibeam vendor format
0238_20100330_170013_Melville.all.mb58.gz 4.98MB Kongsberg multibeam vendor format
0239_20100330_173021_Melville.all.mb58.gz 4.93MB Kongsberg multibeam vendor format
0240_20100330_180011_Melville.all.mb58.gz 5.08MB Kongsberg multibeam vendor format
0241_20100330_183016_Melville.all.mb58.gz 5.01MB Kongsberg multibeam vendor format
0242_20100330_190009_Melville.all.mb58.gz 4.80MB Kongsberg multibeam vendor format
0243_20100330_193015_Melville.all.mb58.gz 4.85MB Kongsberg multibeam vendor format
0244_20100330_200019_Melville.all.mb58.gz 4.80MB Kongsberg multibeam vendor format
0245_20100330_203013_Melville.all.mb58.gz 5.17MB Kongsberg multibeam vendor format
0246_20100330_210016_Melville.all.mb58.gz 5.08MB Kongsberg multibeam vendor format
0247_20100330_213013_Melville.all.mb58.gz 5.29MB Kongsberg multibeam vendor format
0248_20100330_220014_Melville.all.mb58.gz 5.19MB Kongsberg multibeam vendor format
0249_20100330_223019_Melville.all.mb58.gz 5.42MB Kongsberg multibeam vendor format
0250_20100330_230010_Melville.all.mb58.gz 5.08MB Kongsberg multibeam vendor format
0251_20100330_233011_Melville.all.mb58.gz 5.03MB Kongsberg multibeam vendor format
0252_20100331_000023_Melville.all.mb58.gz 5.47MB Kongsberg multibeam vendor format
0253_20100331_003021_Melville.all.mb58.gz 5.62MB Kongsberg multibeam vendor format
0254_20100331_010018_Melville.all.mb58.gz 5.22MB Kongsberg multibeam vendor format
0255_20100331_013022_Melville.all.mb58.gz 5.15MB Kongsberg multibeam vendor format
0256_20100331_020014_Melville.all.mb58.gz 4.89MB Kongsberg multibeam vendor format
0257_20100331_023010_Melville.all.mb58.gz 5.79MB Kongsberg multibeam vendor format
0258_20100331_030014_Melville.all.mb58.gz 5.96MB Kongsberg multibeam vendor format
0259_20100331_033013_Melville.all.mb58.gz 6.23MB Kongsberg multibeam vendor format
0260_20100331_040017_Melville.all.mb58.gz 6.19MB Kongsberg multibeam vendor format
0261_20100331_043009_Melville.all.mb58.gz 5.19MB Kongsberg multibeam vendor format
0262_20100331_050009_Melville.all.mb58.gz 4.98MB Kongsberg multibeam vendor format
0263_20100331_053019_Melville.all.mb58.gz 5.01MB Kongsberg multibeam vendor format
0264_20100331_060010_Melville.all.mb58.gz 5.20MB Kongsberg multibeam vendor format
0265_20100331_063019_Melville.all.mb58.gz 4.93MB Kongsberg multibeam vendor format
0266_20100331_070018_Melville.all.mb58.gz 4.74MB Kongsberg multibeam vendor format
0267_20100331_073009_Melville.all.mb58.gz 5.03MB Kongsberg multibeam vendor format
0268_20100331_080021_Melville.all.mb58.gz 5.05MB Kongsberg multibeam vendor format
0269_20100331_083022_Melville.all.mb58.gz 4.85MB Kongsberg multibeam vendor format
0270_20100331_090023_Melville.all.mb58.gz 4.79MB Kongsberg multibeam vendor format
0271_20100331_093019_Melville.all.mb58.gz 4.92MB Kongsberg multibeam vendor format
0272_20100331_100019_Melville.all.mb58.gz 4.74MB Kongsberg multibeam vendor format
0273_20100331_103021_Melville.all.mb58.gz 4.44MB Kongsberg multibeam vendor format
0274_20100331_110008_Melville.all.mb58.gz 4.35MB Kongsberg multibeam vendor format
0275_20100331_113023_Melville.all.mb58.gz 4.34MB Kongsberg multibeam vendor format
0276_20100331_120008_Melville.all.mb58.gz 4.75MB Kongsberg multibeam vendor format
0277_20100331_123008_Melville.all.mb58.gz 4.82MB Kongsberg multibeam vendor format
0278_20100331_130015_Melville.all.mb58.gz 4.73MB Kongsberg multibeam vendor format
0279_20100331_133014_Melville.all.mb58.gz 5.16MB Kongsberg multibeam vendor format
0280_20100331_140017_Melville.all.mb58.gz 5.19MB Kongsberg multibeam vendor format
0281_20100331_143011_Melville.all.mb58.gz 5.92MB Kongsberg multibeam vendor format
0282_20100331_150012_Melville.all.mb58.gz 5.85MB Kongsberg multibeam vendor format
0283_20100331_153010_Melville.all.mb58.gz 5.80MB Kongsberg multibeam vendor format
0284_20100331_160008_Melville.all.mb58.gz 5.76MB Kongsberg multibeam vendor format
0285_20100331_163007_Melville.all.mb58.gz 5.69MB Kongsberg multibeam vendor format
0286_20100331_170008_Melville.all.mb58.gz 5.81MB Kongsberg multibeam vendor format
0287_20100331_173009_Melville.all.mb58.gz 5.80MB Kongsberg multibeam vendor format
0288_20100331_180014_Melville.all.mb58.gz 5.92MB Kongsberg multibeam vendor format
0289_20100331_183014_Melville.all.mb58.gz 6.30MB Kongsberg multibeam vendor format
0290_20100331_190006_Melville.all.mb58.gz 6.75MB Kongsberg multibeam vendor format
0291_20100331_193018_Melville.all.mb58.gz 6.96MB Kongsberg multibeam vendor format
0292_20100331_200017_Melville.all.mb58.gz 6.87MB Kongsberg multibeam vendor format
0293_20100331_203012_Melville.all.mb58.gz 6.80MB Kongsberg multibeam vendor format
0294_20100331_210011_Melville.all.mb58.gz 6.70MB Kongsberg multibeam vendor format
0295_20100331_213010_Melville.all.mb58.gz 6.86MB Kongsberg multibeam vendor format
0296_20100331_220017_Melville.all.mb58.gz 7.08MB Kongsberg multibeam vendor format
0297_20100331_223014_Melville.all.mb58.gz 7.29MB Kongsberg multibeam vendor format
0298_20100331_230012_Melville.all.mb58.gz 7.49MB Kongsberg multibeam vendor format
0299_20100331_233016_Melville.all.mb58.gz 7.62MB Kongsberg multibeam vendor format
0300_20100401_000016_Melville.all.mb58.gz 7.60MB Kongsberg multibeam vendor format
0301_20100401_003006_Melville.all.mb58.gz 7.69MB Kongsberg multibeam vendor format
0302_20100401_010015_Melville.all.mb58.gz 5.67MB Kongsberg multibeam vendor format
0302_20100401_012549_Melville.all.mb58.gz 7.97MB Kongsberg multibeam vendor format
0303_20100401_015555_Melville.all.mb58.gz 8.06MB Kongsberg multibeam vendor format
0304_20100401_022554_Melville.all.mb58.gz 8.32MB Kongsberg multibeam vendor format
0305_20100401_025556_Melville.all.mb58.gz 8.80MB Kongsberg multibeam vendor format
0306_20100401_032549_Melville.all.mb58.gz 9.33MB Kongsberg multibeam vendor format
0307_20100401_035551_Melville.all.mb58.gz 9.53MB Kongsberg multibeam vendor format
0308_20100401_042554_Melville.all.mb58.gz 9.48MB Kongsberg multibeam vendor format
0309_20100401_045552_Melville.all.mb58.gz 9.94MB Kongsberg multibeam vendor format
0310_20100401_052554_Melville.all.mb58.gz 9.52MB Kongsberg multibeam vendor format
0311_20100401_055552_Melville.all.mb58.gz 9.30MB Kongsberg multibeam vendor format
0312_20100401_062552_Melville.all.mb58.gz 9.21MB Kongsberg multibeam vendor format
0313_20100401_065556_Melville.all.mb58.gz 8.87MB Kongsberg multibeam vendor format
0314_20100401_072554_Melville.all.mb58.gz 8.55MB Kongsberg multibeam vendor format
0315_20100401_075548_Melville.all.mb58.gz 8.18MB Kongsberg multibeam vendor format
0316_20100401_082556_Melville.all.mb58.gz 7.96MB Kongsberg multibeam vendor format
0317_20100401_085549_Melville.all.mb58.gz 7.76MB Kongsberg multibeam vendor format
0318_20100401_092555_Melville.all.mb58.gz 7.26MB Kongsberg multibeam vendor format
0319_20100401_095550_Melville.all.mb58.gz 7.36MB Kongsberg multibeam vendor format
0320_20100401_102553_Melville.all.mb58.gz 6.79MB Kongsberg multibeam vendor format
0321_20100401_105549_Melville.all.mb58.gz 6.66MB Kongsberg multibeam vendor format
0322_20100401_112557_Melville.all.mb58.gz 6.12MB Kongsberg multibeam vendor format
0323_20100401_115553_Melville.all.mb58.gz 6.37MB Kongsberg multibeam vendor format
0324_20100401_122549_Melville.all.mb58.gz 6.21MB Kongsberg multibeam vendor format
0325_20100401_125554_Melville.all.mb58.gz 5.70MB Kongsberg multibeam vendor format
0326_20100401_132559_Melville.all.mb58.gz 5.57MB Kongsberg multibeam vendor format
0327_20100401_135554_Melville.all.mb58.gz 6.03MB Kongsberg multibeam vendor format
0328_20100401_142552_Melville.all.mb58.gz 6.03MB Kongsberg multibeam vendor format
0329_20100401_145551_Melville.all.mb58.gz 5.00MB Kongsberg multibeam vendor format
0330_20100401_152602_Melville.all.mb58.gz 6.27MB Kongsberg multibeam vendor format
0331_20100401_155548_Melville.all.mb58.gz 6.27MB Kongsberg multibeam vendor format
0332_20100401_162558_Melville.all.mb58.gz 6.37MB Kongsberg multibeam vendor format
0333_20100401_165555_Melville.all.mb58.gz 6.34MB Kongsberg multibeam vendor format
0334_20100401_172600_Melville.all.mb58.gz 6.42MB Kongsberg multibeam vendor format
0335_20100401_175557_Melville.all.mb58.gz 6.49MB Kongsberg multibeam vendor format
0336_20100401_182601_Melville.all.mb58.gz 6.14MB Kongsberg multibeam vendor format
0337_20100401_185602_Melville.all.mb58.gz 5.97MB Kongsberg multibeam vendor format
0338_20100401_192549_Melville.all.mb58.gz 5.99MB Kongsberg multibeam vendor format
0339_20100401_195552_Melville.all.mb58.gz 5.84MB Kongsberg multibeam vendor format
0340_20100401_202601_Melville.all.mb58.gz 6.00MB Kongsberg multibeam vendor format
0341_20100401_205601_Melville.all.mb58.gz 5.87MB Kongsberg multibeam vendor format
0342_20100401_212606_Melville.all.mb58.gz 5.84MB Kongsberg multibeam vendor format
0343_20100401_215552_Melville.all.mb58.gz 5.89MB Kongsberg multibeam vendor format
0344_20100401_222600_Melville.all.mb58.gz 5.96MB Kongsberg multibeam vendor format
0345_20100401_225559_Melville.all.mb58.gz 6.01MB Kongsberg multibeam vendor format
0346_20100401_232603_Melville.all.mb58.gz 6.27MB Kongsberg multibeam vendor format
0347_20100401_235550_Melville.all.mb58.gz 5.93MB Kongsberg multibeam vendor format
0348_20100402_002603_Melville.all.mb58.gz 5.66MB Kongsberg multibeam vendor format
0349_20100402_005549_Melville.all.mb58.gz 5.94MB Kongsberg multibeam vendor format
0350_20100402_012600_Melville.all.mb58.gz 5.74MB Kongsberg multibeam vendor format
0351_20100402_015553_Melville.all.mb58.gz 5.95MB Kongsberg multibeam vendor format
0352_20100402_022605_Melville.all.mb58.gz 5.76MB Kongsberg multibeam vendor format
0353_20100402_025554_Melville.all.mb58.gz 5.97MB Kongsberg multibeam vendor format
0354_20100402_032559_Melville.all.mb58.gz 5.96MB Kongsberg multibeam vendor format
0355_20100402_035558_Melville.all.mb58.gz 6.53MB Kongsberg multibeam vendor format
0356_20100402_042551_Melville.all.mb58.gz 6.45MB Kongsberg multibeam vendor format
0357_20100402_045552_Melville.all.mb58.gz 6.41MB Kongsberg multibeam vendor format
0358_20100402_052555_Melville.all.mb58.gz 6.59MB Kongsberg multibeam vendor format
0359_20100402_055559_Melville.all.mb58.gz 6.46MB Kongsberg multibeam vendor format
0360_20100402_062550_Melville.all.mb58.gz 6.16MB Kongsberg multibeam vendor format
0361_20100402_065600_Melville.all.mb58.gz 6.67MB Kongsberg multibeam vendor format
0362_20100402_072556_Melville.all.mb58.gz 5.83MB Kongsberg multibeam vendor format
0363_20100402_075551_Melville.all.mb58.gz 6.50MB Kongsberg multibeam vendor format
0364_20100402_082556_Melville.all.mb58.gz 6.60MB Kongsberg multibeam vendor format
0365_20100402_085557_Melville.all.mb58.gz 6.32MB Kongsberg multibeam vendor format
0366_20100402_092557_Melville.all.mb58.gz 4.88MB Kongsberg multibeam vendor format
0366_20100402_095207_Melville.all.mb58.gz 6.15MB Kongsberg multibeam vendor format
0367_20100402_102205_Melville.all.mb58.gz 6.26MB Kongsberg multibeam vendor format
0368_20100402_105211_Melville.all.mb58.gz 6.08MB Kongsberg multibeam vendor format
0369_20100402_112217_Melville.all.mb58.gz 6.33MB Kongsberg multibeam vendor format
0370_20100402_115214_Melville.all.mb58.gz 6.28MB Kongsberg multibeam vendor format
0371_20100402_122212_Melville.all.mb58.gz 6.05MB Kongsberg multibeam vendor format
0372_20100402_125203_Melville.all.mb58.gz 5.84MB Kongsberg multibeam vendor format
0373_20100402_132210_Melville.all.mb58.gz 5.90MB Kongsberg multibeam vendor format
0374_20100402_135210_Melville.all.mb58.gz 6.17MB Kongsberg multibeam vendor format
0375_20100402_142203_Melville.all.mb58.gz 6.34MB Kongsberg multibeam vendor format
0376_20100402_145213_Melville.all.mb58.gz 7.24MB Kongsberg multibeam vendor format
0377_20100402_152205_Melville.all.mb58.gz 7.39MB Kongsberg multibeam vendor format
0378_20100402_155211_Melville.all.mb58.gz 7.84MB Kongsberg multibeam vendor format
0379_20100402_162210_Melville.all.mb58.gz 7.69MB Kongsberg multibeam vendor format
0380_20100402_165205_Melville.all.mb58.gz 7.23MB Kongsberg multibeam vendor format
0380_20100402_172206_Melville.all.mb58.gz 8.26MB Kongsberg multibeam vendor format
0381_20100402_175206_Melville.all.mb58.gz 7.95MB Kongsberg multibeam vendor format
0382_20100402_182206_Melville.all.mb58.gz 8.67MB Kongsberg multibeam vendor format
0383_20100402_185210_Melville.all.mb58.gz 8.77MB Kongsberg multibeam vendor format
0384_20100402_192207_Melville.all.mb58.gz 9.01MB Kongsberg multibeam vendor format
0385_20100402_195204_Melville.all.mb58.gz 9.38MB Kongsberg multibeam vendor format
0386_20100402_202205_Melville.all.mb58.gz 17.94MB Kongsberg multibeam vendor format
0387_20100402_205209_Melville.all.mb58.gz 16.29MB Kongsberg multibeam vendor format
0387_20100402_212345_Melville.all.mb58.gz 17.29MB Kongsberg multibeam vendor format
0388_20100402_215345_Melville.all.mb58.gz 18.17MB Kongsberg multibeam vendor format
0389_20100402_222342_Melville.all.mb58.gz 19.13MB Kongsberg multibeam vendor format
0390_20100402_225344_Melville.all.mb58.gz 19.08MB Kongsberg multibeam vendor format
0391_20100402_232345_Melville.all.mb58.gz 16.81MB Kongsberg multibeam vendor format
0392_20100402_235342_Melville.all.mb58.gz 17.59MB Kongsberg multibeam vendor format
0393_20100403_002348_Melville.all.mb58.gz 11.39MB Kongsberg multibeam vendor format

Metadata Files: 1

Files File Size Description
MV1005_Multibeam.xml NGDC created ISO metadata

Ancillary Files: 1

Files File Size Description
xbt.tar.gz 183.8KB Expendable Bathythermograph (XBT) data